Time,TemperatureF,DewpointF,PressureIn,WindDirection,WindDirectionDegrees,WindSpeedMPH,WindSpeedGustMPH,Humidity,HourlyPrecipIn,Conditions,Clouds,dailyrainin,SolarRadiationWatts/m^2,SoftwareType,DateUTC
2013-01-14 00:00:00,27.0,-99.9,-100.00,North,-999,-999.0,-999.0,-999,-99.99,,,0.01,141.300003,,2013-01-14 08:00:00,
2013-01-14 00:53:00,27.0,-99.9,-100.00,North,-999,-999.0,-999.0,-999,-99.99,,,0.01,141.300003,,2013-01-14 08:53:00,
2013-01-14 03:00:00,27.0,15.0,-100.00,WNW,289,1.0,2.0,59,-99.99,,,0.01,-222.600006,,2013-01-14 11:00:00,
2013-01-14 03:53:00,27.0,15.0,-100.00,WNW,289,1.0,2.0,59,-99.99,,,0.01,-222.600006,,2013-01-14 11:53:00,
2013-01-14 04:00:00,28.0,18.0,-100.00,WNW,294,0.0,1.0,65,-99.99,,,0.00,-211.199997,,2013-01-14 12:00:00,
2013-01-14 04:53:00,28.0,18.0,-100.00,WNW,294,0.0,1.0,65,-99.99,,,0.00,-211.199997,,2013-01-14 12:53:00,
2013-01-14 05:00:00,30.0,18.0,-100.00,WNW,283,2.0,5.0,62,-99.99,,,0.01,-210.300003,,2013-01-14 13:00:00,
2013-01-14 05:53:00,30.0,18.0,-100.00,WNW,283,2.0,5.0,62,-99.99,,,0.01,-210.300003,,2013-01-14 13:53:00,
2013-01-14 06:00:00,29.0,16.0,-100.00,WNW,287,2.0,4.0,60,-99.99,,,0.00,-210.300003,,2013-01-14 14:00:00,
2013-01-14 06:53:00,29.0,16.0,-100.00,WNW,287,2.0,4.0,60,-99.99,,,0.00,-210.300003,,2013-01-14 14:53:00,
2013-01-14 07:00:00,29.0,18.0,-100.00,West,276,4.0,5.0,64,-99.99,,,0.00,-210.300003,,2013-01-14 15:00:00,
2013-01-14 07:53:00,29.0,18.0,-100.00,West,276,4.0,5.0,64,-99.99,,,0.00,-210.300003,,2013-01-14 15:53:00,
2013-01-14 08:00:00,29.0,21.0,-100.00,WNW,284,1.0,4.0,72,-99.99,,,0.01,-210.300003,,2013-01-14 16:00:00,
2013-01-14 08:53:00,29.0,21.0,-100.00,WNW,284,1.0,4.0,72,-99.99,,,0.01,-210.300003,,2013-01-14 16:53:00,
2013-01-14 09:00:00,32.0,24.0,-100.00,NW,318,1.0,2.0,73,-99.99,,,0.00,-150.600006,,2013-01-14 17:00:00,
2013-01-14 09:53:00,32.0,24.0,-100.00,NW,318,1.0,2.0,73,-99.99,,,0.00,-150.600006,,2013-01-14 17:53:00,
2013-01-14 10:00:00,38.0,28.0,-100.00,SE,124,0.0,2.0,67,-99.99,,,0.00,105.699997,,2013-01-14 18:00:00,
2013-01-14 10:53:00,38.0,28.0,-100.00,SE,124,0.0,2.0,67,-99.99,,,0.00,105.699997,,2013-01-14 18:53:00,
2013-01-14 11:00:00,41.0,27.0,-100.00,West,276,1.0,4.0,58,-99.99,,,0.00,242.899994,,2013-01-14 19:00:00,
2013-01-14 11:53:00,41.0,27.0,-100.00,West,276,1.0,4.0,58,-99.99,,,0.00,242.899994,,2013-01-14 19:53:00,
2013-01-14 13:00:00,35.0,22.0,-100.00,WNW,283,4.0,5.0,60,-99.99,,,0.00,299.100006,,2013-01-14 21:00:00,
2013-01-14 13:53:00,35.0,22.0,-100.00,WNW,283,4.0,5.0,60,-99.99,,,0.00,299.100006,,2013-01-14 21:53:00,
2013-01-14 14:00:00,38.0,26.0,-100.00,West,272,3.0,6.0,61,-99.99,,,0.00,276.700012,,2013-01-14 22:00:00,
2013-01-14 14:53:00,38.0,26.0,-100.00,West,272,3.0,6.0,61,-99.99,,,0.00,276.700012,,2013-01-14 22:53:00,
2013-01-14 15:00:00,33.0,20.0,-100.00,SW,223,3.0,6.0,58,-99.99,,,0.00,183.500000,,2013-01-14 23:00:00,
2013-01-14 15:53:00,33.0,20.0,-100.00,SW,223,3.0,6.0,58,-99.99,,,0.00,183.500000,,2013-01-14 23:53:00,
2013-01-14 16:00:00,34.0,22.0,-100.00,NW,305,2.0,4.0,60,-99.99,,,-99.99,68.800003,,2013-01-15 00:00:00,
2013-01-14 16:53:00,34.0,22.0,-100.00,NW,305,2.0,4.0,60,-99.99,,,-99.99,68.800003,,2013-01-15 00:53:00,
2013-01-14 17:00:00,32.0,18.0,-100.00,WNW,293,1.0,2.0,54,-99.99,,,0.00,9.500000,,2013-01-15 01:00:00,
2013-01-14 17:52:00,32.0,18.0,-100.00,WNW,293,1.0,2.0,54,-99.99,,,0.00,9.500000,,2013-01-15 01:52:00,
2013-01-14 18:00:00,30.0,16.0,-100.00,NE,47,0.0,1.0,55,-99.99,,,0.00,-0.200000,,2013-01-15 02:00:00,
2013-01-14 18:53:00,30.0,16.0,-100.00,NE,47,0.0,1.0,55,-99.99,,,0.00,-0.200000,,2013-01-15 02:53:00,
2013-01-14 19:00:00,29.0,18.0,-100.00,West,281,0.0,1.0,62,-99.99,,,0.00,-0.200000,,2013-01-15 03:00:00,
2013-01-14 19:53:00,29.0,18.0,-100.00,West,281,0.0,1.0,62,-99.99,,,0.00,-0.200000,,2013-01-15 03:53:00,
2013-01-14 20:00:00,31.0,18.0,-100.00,NW,317,0.0,2.0,57,-99.99,,,0.00,-0.200000,,2013-01-15 04:00:00,
2013-01-14 20:52:00,31.0,18.0,-100.00,NW,317,0.0,2.0,57,-99.99,,,0.00,-0.200000,,2013-01-15 04:52:00,
2013-01-14 21:00:00,29.0,16.0,-100.00,WNW,301,0.0,1.0,59,-99.99,,,-99.99,-0.200000,,2013-01-15 05:00:00,
2013-01-14 21:52:00,29.0,16.0,-100.00,WNW,301,0.0,1.0,59,-99.99,,,-99.99,-0.200000,,2013-01-15 05:52:00,
2013-01-14 22:00:00,31.0,18.0,-100.00,NW,310,0.0,2.0,59,-99.99,,,0.00,-0.200000,,2013-01-15 06:00:00,
2013-01-14 22:53:00,31.0,18.0,-100.00,NW,310,0.0,2.0,59,-99.99,,,0.00,-0.200000,,2013-01-15 06:53:00,
2013-01-14 23:00:00,32.0,17.0,-100.00,WNW,301,1.0,2.0,53,-99.99,,,-99.99,-0.200000,,2013-01-15 07:00:00,
2013-01-14 23:52:00,32.0,17.0,-100.00,WNW,301,1.0,2.0,53,-99.99,,,-99.99,-0.200000,,2013-01-15 07:52:00,